Location: ASU Dark Sky Observatory
(36.2504°N, 81.4125°W)
Time: 03:47:41
(UTC-05:00)

Amateur Radio Satellites - All Passes

Search period start: 10 February 2016 03:17
Search period end: 11 February 2016 03:17
Location: ASU Dark Sky Observatory, 36.2504°N, 81.4125°W

Satellite Date Start Highest point End Downlink Frequencies (MHz)
Time Altitude Azimuth
AIST 2 10 Feb 03:20:43 03:23:25 17° 49° (NE) 03:26:06 435.215
CUSAT 1 10 Feb 03:27:59 03:34:25 27° 291° (WNW) 03:40:59 437.405
Cosmos 2491 10 Feb 03:43:22 03:51:31 46° 272° (W) 03:59:42 435.465 / 435.565
DANDE 10 Feb 04:02:01 04:08:16 26° 293° (WNW) 04:15:01 436.750
SO-50 10 Feb 04:02:01 04:05:33 20° 109° (ESE) 04:09:08 436.795
Cosmos 2504 10 Feb 04:04:57 04:11:38 26° 82° (E) 04:18:31 435.465 / 435.565
AO-7 10 Feb 04:15:23 04:23:43 71° 105° (ESE) 04:31:58 29.400- 29.500
STARS 10 Feb 04:15:50 04:19:43 30° 263° (W) 04:23:35 437.465
HORYU 2 10 Feb 04:17:17 04:21:12 30° 97° (E) 04:25:06 437.375
Gurwin Techsat 1B 10 Feb 04:18:36 04:20:52 13° 298° (WNW) 04:23:09 435.225
MOZHAYETS 4 10 Feb 04:27:14 04:31:24 35° 263° (W) 04:35:36
YUBILEINY 10 Feb 04:29:09 04:37:33 49° 283° (WNW) 04:46:04 435.215
PHONESAT 2.4 10 Feb 04:29:12 04:32:21 44° 10° (N) 04:35:30 2401.200-2431.200
M-CUBED/EXP-1 PRIME 10 Feb 04:30:57 04:34:17 49° 105° (ESE) 04:37:50 437.505
KKS-1 10 Feb 04:37:15 04:37:27 10° 269° (W) 04:37:39 437.445
AUBIESAT-1 10 Feb 04:40:36 04:44:01 54° 106° (ESE) 04:47:38 437.475
ITAMSAT 1 10 Feb 04:57:04 04:58:00 10° 300° (WNW) 04:58:56 435.822/435.867
AIST 2 10 Feb 04:58:12 05:02:06 42° 245° (WSW) 05:05:59 435.215
CUBESAT XI-V 10 Feb 05:07:43 05:12:18 57° 74° (ENE) 05:16:56 437.345
SO-50 10 Feb 05:41:03 05:45:43 44° 305° (NW) 05:50:27 436.795
LilacSat-2 10 Feb 05:45:54 05:47:31 12° 93° (E) 05:49:09 437.200
STRAND 1 10 Feb 05:53:08 05:57:05 23° 67° (ENE) 06:01:03 437.568
HORYU 2 10 Feb 05:54:11 05:57:34 22° 292° (WNW) 06:00:58 437.375
Cosmos 2504 10 Feb 05:55:53 06:04:16 62° 280° (W) 06:13:04 435.465 / 435.565
PHONESAT 2.4 10 Feb 06:06:29 06:09:41 55° 205° (SSW) 06:12:53 2401.200-2431.200
AO-7 10 Feb 06:09:25 06:15:42 25° 303° (WNW) 06:21:58 29.400- 29.500
CUTE-I 10 Feb 06:32:25 06:37:44 58° 101° (E) 06:43:01 437.470
PRISM 10 Feb 06:39:11 06:41:53 17° 67° (ENE) 06:44:36 437.425
GOMX 1 10 Feb 06:41:44 06:44:20 15° 92° (E) 06:46:50 467.674
Cubesat XI-IV 10 Feb 06:46:10 06:51:35 79° 103° (ESE) 06:56:57 437.490
CUBESAT XI-V 10 Feb 06:48:10 06:50:01 12° 269° (W) 06:51:52 437.345
BRITE-PL 10 Feb 07:13:46 07:18:29 85° 102° (ESE) 07:22:49 437.365/2234.400
LilacSat-2 10 Feb 07:18:30 07:21:58 35° 287° (WNW) 07:25:26 437.200
STRAND 1 10 Feb 07:31:18 07:36:00 37° 262° (W) 07:40:44 437.568
DOVE 4 10 Feb 07:58:00 08:02:10 59° 100° (E) 08:06:15 437.250
GONETS M04 10 Feb 07:59:49 08:06:29 26° 83° (E) 08:13:10
HO-68 10 Feb 08:07:58 08:14:38 39° 99° (E) 08:21:14 435.675
CANX-2 10 Feb 08:10:04 08:14:02 36° 98° (E) 08:17:59 2200.000
PRISM 10 Feb 08:13:09 08:16:55 34° 262° (W) 08:20:45 437.425
CUTE-I 10 Feb 08:13:58 08:17:15 17° 296° (WNW) 08:20:33 437.470
GOMX 1 10 Feb 08:18:36 08:22:36 36° 288° (WNW) 08:26:27 467.674
O/OREOS (USA 219) 10 Feb 08:22:45 08:27:10 64° 291° (WNW) 08:31:40 437.305
Cubesat XI-IV 10 Feb 08:28:47 08:30:55 12° 299° (WNW) 08:33:03 437.490
JUGNU 10 Feb 08:36:27 08:39:07 13° 171° (S) 08:41:47 437.505
CINEMA 3 10 Feb 08:50:01 08:54:11 78° 103° (ESE) 08:58:22 145.822/145.860
COMPASS 1 10 Feb 08:51:31 08:55:40 53° 100° (E) 08:59:47 437.405
Oscar 11 10 Feb 08:54:28 08:57:26 18° 94° (E) 09:00:24 145.826/435.025
CUBEBUG 2 10 Feb 08:55:07 08:58:46 28° 97° (E) 09:02:27 437.445
UWE-3 10 Feb 08:55:36 08:58:45 20° 95° (E) 09:01:57 435.000/436.395/437.385
CUTE 1.7 + AOD 2 10 Feb 09:00:27 09:04:42 63° 284° (WNW) 09:08:56 437.475
AO-85 10 Feb 09:03:54 09:06:26 14° 105° (ESE) 09:09:00 145.980
Cosmos 2499 10 Feb 09:04:27 09:11:40 31° 84° (E) 09:19:01 435.465 / 435.565
SEEDS 10 Feb 09:06:13 09:10:28 73° 284° (WNW) 09:14:43 437.485
UNISAT 6 10 Feb 09:11:41 09:14:41 19° 68° (ENE) 09:17:41 437.425
AAUSAT CUBESAT 2 10 Feb 09:19:49 09:24:02 85° 285° (WNW) 09:28:14 437.432
CANX-2 10 Feb 09:46:48 09:49:36 17° 292° (WNW) 09:52:23 2200.000
ZACube-1 10 Feb 09:48:04 09:52:15 59° 101° (E) 09:56:30 437.345
POPSAT HIP 1 10 Feb 09:52:09 09:53:40 12° 65° (ENE) 09:55:10 437.405
GONETS M04 10 Feb 09:54:03 10:02:34 60° 280° (W) 10:11:12
ANTELSAT 10 Feb 09:55:16 09:59:32 60° 75° (ENE) 10:03:45 437.575/2403.000
HO-68 10 Feb 09:55:46 10:02:12 37° 295° (WNW) 10:08:36 435.675
NANOSAT C BR1 10 Feb 09:56:11 09:58:05 13° 66° (ENE) 09:59:58 145.865
FUNcube-1 10 Feb 09:56:55 10:01:08 73° 102° (ESE) 10:05:26 145.935
DUCHIFAT 1 10 Feb 09:57:31 09:59:20 13° 66° (ENE) 10:01:09 145.980
TIGRISAT 10 Feb 10:01:58 10:06:16 69° 77° (ENE) 10:10:31 435.000
QB50P1 10 Feb 10:03:30 10:06:08 16° 67° (ENE) 10:08:47 145.935-145.965
HUMSAT D 10 Feb 10:04:13 10:07:38 24° 96° (E) 10:11:03 437.325/437.525
SRMSAT 10 Feb 10:13:48 10:15:48 12° 169° (SSE) 10:17:49 437.500
AIST 1 10 Feb 10:22:11 10:26:12 36° 91° (E) 10:30:14
JUGNU 10 Feb 10:24:00 10:27:20 15° 182° (S) 10:30:39 437.505
COMPASS 1 10 Feb 10:29:14 10:30:45 12° 294° (WNW) 10:32:16 437.405
Oscar 11 10 Feb 10:29:42 10:33:38 34° 288° (WNW) 10:37:32 145.826/435.025
DELFI C3 10 Feb 10:30:52 10:34:51 57° 284° (WNW) 10:38:49 145.870
UWE-3 10 Feb 10:31:36 10:35:12 28° 289° (WNW) 10:38:52 435.000/436.395/437.385
CUBEBUG 2 10 Feb 10:32:07 10:35:13 20° 291° (WNW) 10:38:22 437.445
50 SAT 10 Feb 10:40:46 10:42:09 12° 93° (E) 10:43:32 437.505
AO-85 10 Feb 10:40:57 10:46:16 74° 301° (WNW) 10:51:46 145.980
ESTCUBE 1 10 Feb 10:43:11 10:45:31 14° 92° (E) 10:47:51 437.505/2401.250
DX 1 10 Feb 10:43:38 10:45:21 12° 92° (E) 10:47:03 434.975-435.025
UNISAT 6 10 Feb 10:47:17 10:51:11 32° 262° (W) 10:55:02 437.425
POLYITAN 1 10 Feb 10:54:28 10:58:40 67° 75° (ENE) 11:02:52 437.675
QB50P2 10 Feb 10:55:04 10:59:17 70° 76° (ENE) 11:03:31 145.880/145.840
BUGSAT 1 10 Feb 10:55:16 10:58:58 30° 71° (ENE) 11:02:37 437.445
Cosmos 2499 10 Feb 10:55:49 11:04:15 55° 282° (WNW) 11:12:57 435.465 / 435.565
PCSat 10 Feb 10:57:54 11:03:19 88° 112° (ESE) 11:08:47 145.827
RS-15 10 Feb 11:13:44 11:24:26 59° 111° (ESE) 11:35:40 29.354- 29.394
POPSAT HIP 1 10 Feb 11:24:49 11:28:58 53° 260° (W) 11:33:06 437.405
ZACube-1 10 Feb 11:27:11 11:28:03 11° 295° (WNW) 11:28:54 437.345
NANOSAT C BR1 10 Feb 11:29:18 11:33:23 48° 260° (W) 11:37:29 145.865
DUCHIFAT 1 10 Feb 11:30:31 11:34:36 48° 260° (W) 11:38:42 145.980
VELOX 1 10 Feb 11:37:38 11:41:56 50° 100° (E) 11:46:11 145.980
QB50P1 10 Feb 11:37:42 11:41:37 36° 262° (W) 11:45:33 145.935-145.965
HUMSAT D 10 Feb 11:39:49 11:43:10 24° 290° (WNW) 11:46:32 437.325/437.525
JAS-2 10 Feb 11:41:45 11:45:44 15° 61° (ENE) 11:49:33 435.910
Oscar 19 10 Feb 11:43:31 11:45:50 13° 63° (ENE) 11:48:08 437.125/150
AISAT 10 Feb 11:54:18 11:58:44 84° 105° (ESE) 12:03:07 437.250
SRMSAT 10 Feb 12:00:47 12:04:10 16° 179° (S) 12:07:33 437.500
AIST 1 10 Feb 12:01:08 12:03:54 16° 287° (WNW) 12:06:42
UKube-1 10 Feb 12:04:34 12:08:55 85° 284° (WNW) 12:13:13 .
CUBEBUG 1 10 Feb 12:12:41 12:17:03 74° 284° (WNW) 12:21:21 437.445
50 SAT 10 Feb 12:12:46 12:16:20 39° 286° (WNW) 12:19:52 437.505
SPROUT 10 Feb 12:13:17 12:17:13 36° 98° (E) 12:21:07 437.525
JUGNU 10 Feb 12:13:43 12:15:31 11° 192° (SSW) 12:17:20 437.505
DX 1 10 Feb 12:17:35 12:21:48 49° 287° (WNW) 12:25:58 434.975-435.025
ESTCUBE 1 10 Feb 12:18:12 12:22:33 47° 287° (WNW) 12:26:54 437.505/2401.250
Gurwin Techsat 1B 10 Feb 12:19:57 12:20:51 10° 60° (ENE) 12:21:46 435.225
TISAT 1 10 Feb 12:21:42 12:24:04 15° 94° (E) 12:26:27 437.305
AO-85 10 Feb 12:25:22 12:27:44 13° 319° (NW) 12:30:09 145.980
CUSAT 1 10 Feb 12:26:31 12:31:25 30° 70° (ENE) 12:35:16 437.405
BUGSAT 1 10 Feb 12:31:22 12:34:21 19° 265° (W) 12:37:19 437.445
SO-50 10 Feb 12:36:53 12:38:29 11° 41° (NE) 12:40:04 436.795
PCSat 10 Feb 12:44:46 12:47:27 14° 314° (NW) 12:50:07 145.827
YUBILEINY 10 Feb 12:49:02 12:52:36 13° 62° (ENE) 12:56:09 435.215
ITAMSAT 1 10 Feb 12:54:04 12:55:48 12° 61° (ENE) 12:57:33 435.822/435.867
DANDE 10 Feb 13:03:20 13:09:45 42° 73° (ENE) 13:14:40 436.750
VELOX 1 10 Feb 13:15:49 13:17:57 13° 295° (WNW) 13:20:04 145.980
Oscar 19 10 Feb 13:19:20 13:24:30 71° 258° (WSW) 13:29:41 437.125/150
BEESAT 10 Feb 13:21:26 13:23:29 13° 92° (E) 13:25:32 436.000
JAS-2 10 Feb 13:22:08 13:29:54 85° 75° (ENE) 13:37:02 435.910
AO-7 10 Feb 13:23:35 13:27:58 15° 51° (NE) 13:32:20 29.400- 29.500
RS-15 10 Feb 13:26:58 13:37:17 41° 314° (NW) 13:48:12 29.354- 29.394
SRMSAT 10 Feb 13:49:53 13:52:32 13° 189° (S) 13:55:11 437.500
SPROUT 10 Feb 13:50:09 13:52:53 17° 293° (WNW) 13:55:36 437.525
Gurwin Techsat 1B 10 Feb 13:54:40 13:59:59 90° 260° (W) 14:05:20 435.225
TISAT 1 10 Feb 13:56:01 13:59:52 37° 288° (WNW) 14:03:42 437.305
CUSAT 1 10 Feb 14:09:18 14:13:20 22° 277° (W) 14:16:39 437.405
SWISSCUBE 10 Feb 14:11:40 14:16:21 51° 100° (E) 14:21:00 437.505
SO-50 10 Feb 14:14:57 14:19:46 84° 62° (ENE) 14:24:23 436.795
ITAMSAT 1 10 Feb 14:29:22 14:34:33 80° 257° (WSW) 14:39:46 435.822/435.867
YUBILEINY 10 Feb 14:42:06 14:50:59 75° 82° (E) 14:59:46 435.215
Cosmos 2491 10 Feb 14:44:31 14:52:35 44° 88° (E) 15:00:39 435.465 / 435.565
DANDE 10 Feb 14:47:07 14:52:07 23° 278° (W) 14:56:12 436.750
ITUPSAT 1 10 Feb 14:48:44 14:53:33 73° 285° (WNW) 14:58:20 437.325
KKS-1 10 Feb 14:51:16 14:53:41 14° 93° (E) 14:56:05 437.445
BEESAT 10 Feb 14:56:53 15:01:36 58° 286° (WNW) 15:06:17 436.000
JAS-2 10 Feb 15:10:56 15:15:21 16° 269° (W) 15:19:38 435.910
AO-7 10 Feb 15:11:00 15:19:21 76° 70° (ENE) 15:27:43 29.400- 29.500
HORYU 2 10 Feb 15:13:25 15:16:42 21° 68° (ENE) 15:19:59 437.375
M-CUBED/EXP-1 PRIME 10 Feb 15:16:02 15:19:31 41° 70° (ENE) 15:22:48 437.505
ISS 10 Feb 15:25:01 15:28:14 71° 138° (SE) 15:31:29 145.825
AUBIESAT-1 10 Feb 15:25:14 15:28:42 43° 71° (ENE) 15:32:02 437.475
RS-15 10 Feb 15:47:56 15:54:29 16° 347° (NNW) 16:01:13 29.354- 29.394
SWISSCUBE 10 Feb 15:50:53 15:53:42 16° 295° (WNW) 15:56:29 437.505
Cosmos 2504 10 Feb 15:52:28 16:00:36 45° 76° (ENE) 16:08:11 435.465 / 435.565
STARS 10 Feb 16:07:15 16:11:34 58° 101° (E) 16:15:50 437.465
MOZHAYETS 4 10 Feb 16:24:17 16:28:55 65° 101° (E) 16:33:32
KKS-1 10 Feb 16:26:14 16:30:26 43° 287° (WNW) 16:34:37 437.445
BEESAT 3 10 Feb 16:26:48 16:30:11 27° 113° (ESE) 16:33:36 437.485
Cubesat XI-IV 10 Feb 16:29:47 16:31:34 12° 61° (ENE) 16:33:21 437.490
YUBILEINY 10 Feb 16:40:53 16:46:44 20° 280° (W) 16:52:35 435.215
Cosmos 2491 10 Feb 16:41:38 16:49:26 36° 286° (WNW) 16:57:17 435.465 / 435.565
HORYU 2 10 Feb 16:49:09 16:53:03 31° 262° (W) 16:56:58 437.375
BEESAT 2 10 Feb 16:52:02 16:55:39 33° 114° (ESE) 16:59:18 435.950
O/OREOS (USA 219) 10 Feb 16:57:33 17:00:05 14° 57° (ENE) 17:02:37 437.305
ISS 10 Feb 17:03:02 17:05:00 15° 333° (NNW) 17:06:59 145.825
AO-7 10 Feb 17:06:58 17:12:45 20° 266° (W) 17:18:35 29.400- 29.500
CUBESAT XI-V 10 Feb 17:08:04 17:11:14 18° 93° (E) 17:14:22 437.345
STARS 10 Feb 17:45:54 17:47:24 12° 296° (WNW) 17:48:54 437.465
Cosmos 2504 10 Feb 17:46:18 17:53:38 34° 275° (W) 18:00:34 435.465 / 435.565
GOMX 1 10 Feb 17:46:33 17:50:06 18° 67° (ENE) 17:53:33 467.674
CUTE-I 10 Feb 17:51:36 17:56:54 74° 75° (ENE) 18:02:14 437.470
LilacSat-2 10 Feb 17:57:26 18:01:14 70° 76° (ENE) 18:05:01 437.200
MOZHAYETS 4 10 Feb 18:03:56 18:05:29 12° 296° (WNW) 18:07:04
BEESAT 3 10 Feb 18:04:45 18:07:55 22° 308° (NW) 18:11:06 437.485
Cubesat XI-IV 10 Feb 18:05:33 18:10:53 82° 257° (WSW) 18:16:15 437.490
RS-15 10 Feb 18:05:42 18:13:56 20° 25° (NNE) 18:22:17 29.354- 29.394
BRITE-PL 10 Feb 18:20:10 18:25:51 74° 76° (ENE) 18:31:25 437.365/2234.400
BEESAT 2 10 Feb 18:30:41 18:33:37 19° 310° (NW) 18:36:35 435.950
HO-68 10 Feb 18:34:58 18:40:19 23° 61° (ENE) 18:45:40 435.675
O/OREOS (USA 219) 10 Feb 18:35:19 18:39:48 52° 253° (WSW) 18:44:15 437.305
CUBESAT XI-V 10 Feb 18:44:22 18:48:45 39° 288° (WNW) 18:53:04 437.345
AIST 2 10 Feb 18:52:46 18:56:56 73° 117° (ESE) 19:01:05 435.215
DOVE 4 10 Feb 19:00:00 19:04:55 48° 74° (ENE) 19:09:35 437.250
CANX-2 10 Feb 19:01:09 19:04:06 19° 69° (ENE) 19:07:04 2200.000
AO-85 10 Feb 19:16:04 19:21:03 49° 56° (NE) 19:25:34 145.980
GOMX 1 10 Feb 19:22:27 19:27:45 53° 260° (W) 19:32:53 467.674
CUTE-I 10 Feb 19:35:44 19:37:26 11° 269° (W) 19:39:08 437.470
COMPASS 1 10 Feb 19:40:15 19:43:38 25° 70° (ENE) 19:47:03 437.405
STRAND 1 10 Feb 19:43:53 19:49:05 89° 284° (WNW) 19:54:15 437.568
PCSat 10 Feb 19:48:37 19:53:43 40° 57° (ENE) 19:58:47 145.827
CINEMA 3 10 Feb 19:48:42 19:53:13 52° 75° (ENE) 19:57:33 145.822/145.860
Oscar 11 10 Feb 19:49:05 19:49:53 10° 64° (ENE) 19:50:40 145.826/435.025
CUTE 1.7 + AOD 2 10 Feb 19:50:14 19:54:23 63° 75° (ENE) 19:58:34 437.475
CUBEBUG 2 10 Feb 19:51:35 19:54:31 18° 69° (ENE) 19:57:25 437.445
UWE-3 10 Feb 19:51:46 19:53:34 13° 66° (ENE) 19:55:22 435.000/436.395/437.385
SEEDS 10 Feb 19:55:11 19:59:14 52° 75° (ENE) 20:03:20 437.485
PRISM 10 Feb 19:57:15 20:01:08 37° 99° (E) 20:04:58 437.425
BRITE-PL 10 Feb 20:02:06 20:04:42 13° 270° (W) 20:07:19 437.365/2234.400
GONETS M04 10 Feb 20:07:18 20:16:01 61° 80° (E) 20:24:43
AAUSAT CUBESAT 2 10 Feb 20:07:29 20:11:22 42° 74° (ENE) 20:15:18 437.432
RS-15 10 Feb 20:17:55 20:29:55 58° 53° (NE) 20:41:58 29.354- 29.394
HO-68 10 Feb 20:20:19 20:27:24 64° 257° (WSW) 20:34:33 435.675
AIST 2 10 Feb 20:34:28 20:35:54 11° 315° (NW) 20:37:21 435.215
CANX-2 10 Feb 20:36:00 20:39:43 30° 263° (W) 20:43:29 2200.000
DOVE 4 10 Feb 20:39:31 20:42:45 17° 267° (W) 20:45:53 437.250
ZACube-1 10 Feb 20:41:38 20:45:24 32° 72° (ENE) 20:49:07 437.345
FUNcube-1 10 Feb 20:50:03 20:53:58 38° 73° (ENE) 20:57:49 145.935
Cosmos 2499 10 Feb 20:51:05 20:59:07 50° 77° (ENE) 21:06:31 435.465 / 435.565
HUMSAT D 10 Feb 20:54:56 20:56:35 12° 66° (ENE) 20:58:15 437.325/437.525
AO-85 10 Feb 20:57:56 21:01:00 17° 254° (WSW) 21:03:55 145.980
DELFI C3 10 Feb 21:14:18 21:18:10 54° 75° (ENE) 21:22:04 145.870
COMPASS 1 10 Feb 21:15:54 21:19:08 22° 265° (W) 21:22:24 437.405
Oscar 11 10 Feb 21:21:12 21:25:26 62° 259° (W) 21:29:43 145.826/435.025
UWE-3 10 Feb 21:25:29 21:29:37 48° 260° (W) 21:33:42 435.000/436.395/437.385
CUBEBUG 2 10 Feb 21:27:00 21:30:55 33° 262° (W) 21:34:46 437.445
CINEMA 3 10 Feb 21:28:31 21:30:33 13° 267° (W) 21:32:34 145.822/145.860
PCSat 10 Feb 21:32:31 21:36:50 25° 253° (WSW) 21:41:08 145.827
PRISM 10 Feb 21:33:36 21:36:08 16° 293° (WNW) 21:38:40 437.425
SEEDS 10 Feb 21:34:36 21:35:15 10° 269° (W) 21:35:54 437.485
AAUSAT CUBESAT 2 10 Feb 21:45:15 21:47:05 13° 268° (W) 21:48:55 437.432
ANTELSAT 10 Feb 21:50:41 21:53:15 15° 94° (E) 21:55:48 437.575/2403.000
ISS 10 Feb 21:55:07 21:57:57 27° 33° (NNE) 22:00:47 145.825
TIGRISAT 10 Feb 21:56:58 21:59:50 17° 94° (E) 22:02:42 435.000
GONETS M04 10 Feb 22:05:21 22:12:06 26° 277° (W) 22:18:53
AIST 1 10 Feb 22:08:58 22:13:19 84° 262° (W) 22:17:36
ZACube-1 10 Feb 22:18:57 22:21:44 17° 266° (W) 22:24:30 437.345
HUMSAT D 10 Feb 22:27:53 22:31:49 46° 261° (W) 22:35:45 437.325/437.525
FUNcube-1 10 Feb 22:28:05 22:30:21 14° 267° (W) 22:32:36 145.935
RS-15 10 Feb 22:30:58 22:41:59 42° 253° (WSW) 22:53:04 29.354- 29.394
VELOX 1 10 Feb 22:32:29 22:36:27 32° 71° (ENE) 22:40:27 145.980
UNISAT 6 10 Feb 22:40:47 22:45:06 59° 101° (E) 22:49:29 437.425
POLYITAN 1 10 Feb 22:43:56 22:45:53 13° 93° (E) 22:47:50 437.675
QB50P2 10 Feb 22:44:22 22:46:30 14° 93° (E) 22:48:38 145.880/145.840
Cosmos 2499 10 Feb 22:44:59 22:51:43 29° 276° (W) 22:58:04 435.465 / 435.565
AISAT 10 Feb 22:48:54 22:53:15 53° 74° (ENE) 22:57:37 437.250
50 SAT 10 Feb 22:50:02 22:53:40 63° 76° (ENE) 22:57:21 437.505
UKube-1 10 Feb 22:56:19 23:00:33 56° 74° (ENE) 23:04:49 .
SPROUT 10 Feb 23:05:04 23:08:15 21° 69° (ENE) 23:11:28 437.525
CUBEBUG 1 10 Feb 23:05:38 23:10:01 65° 75° (ENE) 23:14:25 437.445
DX 1 10 Feb 23:09:59 23:14:23 83° 260° (W) 23:18:47 434.975-435.025
POPSAT HIP 1 10 Feb 23:12:35 23:16:13 28° 97° (E) 23:19:50 437.405
ESTCUBE 1 10 Feb 23:14:38 23:19:08 73° 258° (WSW) 23:23:40 437.505/2401.250
NANOSAT C BR1 10 Feb 23:16:34 23:20:18 30° 98° (E) 23:24:00 145.865
DUCHIFAT 1 10 Feb 23:17:34 23:21:15 30° 97° (E) 23:24:55 145.980
QB50P1 10 Feb 23:24:52 23:28:50 40° 98° (E) 23:32:47 145.935-145.965
ANTELSAT 10 Feb 23:26:00 23:30:05 41° 287° (WNW) 23:34:16 437.575/2403.000
ISS 10 Feb 23:31:36 23:34:20 25° 229° (SW) 23:37:03 145.825
TIGRISAT 10 Feb 23:32:38 23:36:36 36° 288° (WNW) 23:40:38 435.000
VELOX 1 11 Feb 00:09:42 00:12:57 20° 265° (W) 00:16:13 145.980
BUGSAT 1 11 Feb 00:14:29 00:18:31 75° 101° (E) 00:22:31 437.445
POLYITAN 1 11 Feb 00:17:54 00:21:53 43° 287° (WNW) 00:25:52 437.675
QB50P2 11 Feb 00:18:32 00:22:30 41° 287° (WNW) 00:26:27 145.880/145.840
PHONESAT 2.4 11 Feb 00:19:34 00:22:43 44° 153° (SSE) 00:25:52 2401.200-2431.200
UNISAT 6 11 Feb 00:19:56 00:21:19 11° 295° (WNW) 00:22:43 437.425
BEESAT 11 Feb 00:26:20 00:27:59 12° 63° (ENE) 00:29:38 436.000
AISAT 11 Feb 00:28:17 00:30:01 12° 268° (W) 00:31:45 437.250
DANDE 11 Feb 00:30:45 00:31:20 10° 76° (ENE) 00:31:54 436.750
UKube-1 11 Feb 00:36:00 00:36:55 11° 268° (W) 00:37:50 .
SPROUT 11 Feb 00:40:17 00:44:03 29° 263° (W) 00:47:48 437.525
TISAT 1 11 Feb 00:44:31 00:48:44 74° 259° (W) 00:52:58 437.305
POPSAT HIP 1 11 Feb 00:48:43 00:51:49 20° 291° (WNW) 00:54:55 437.405
NANOSAT C BR1 11 Feb 00:52:52 00:55:48 19° 292° (WNW) 00:58:45 145.865
DUCHIFAT 1 11 Feb 00:53:46 00:56:44 19° 292° (WNW) 00:59:42 145.980
Cosmos 2491 11 Feb 00:59:10 01:04:49 18° 66° (ENE) 01:10:27 435.465 / 435.565
QB50P1 11 Feb 01:01:55 01:04:16 15° 293° (WNW) 01:06:36 145.935-145.965
BEESAT 2 11 Feb 01:14:33 01:15:44 11° 46° (NE) 01:16:53 435.950
SWISSCUBE 11 Feb 01:15:33 01:20:02 43° 72° (ENE) 01:24:33 437.505
CUSAT 1 11 Feb 01:22:34 01:30:08 53° 92° (E) 01:37:53 437.405
Oscar 19 11 Feb 01:33:39 01:38:39 50° 100° (E) 01:43:35 437.125/150
YUBILEINY 11 Feb 01:47:41 01:52:24 16° 78° (ENE) 01:57:08 435.215
KKS-1 11 Feb 01:48:50 01:49:39 10° 63° (ENE) 01:50:27 437.445
ITUPSAT 1 11 Feb 01:52:39 01:57:26 85° 257° (WSW) 02:02:14 437.325
PHONESAT 2.4 11 Feb 01:56:47 01:59:59 48° 349° (NNW) 02:03:11 2401.200-2431.200
BEESAT 11 Feb 02:00:26 02:05:09 68° 258° (WSW) 02:09:55 436.000
DANDE 11 Feb 02:05:02 02:12:31 63° 93° (E) 02:20:52 436.750
Gurwin Techsat 1B 11 Feb 02:13:43 02:18:48 45° 99° (E) 02:23:52 435.225
JAS-2 11 Feb 02:20:51 02:26:26 86° 285° (WNW) 02:31:37 435.910
BEESAT 3 11 Feb 02:23:45 02:27:43 87° 237° (WSW) 02:31:37 437.485
ITAMSAT 1 11 Feb 02:44:59 02:50:00 45° 100° (E) 02:55:00 435.822/435.867
BEESAT 2 11 Feb 02:50:05 02:54:03 69° 243° (WSW) 02:57:59 435.950
Cosmos 2491 11 Feb 02:53:53 03:02:40 83° 266° (W) 03:11:28 435.465 / 435.565
SWISSCUBE 11 Feb 02:54:58 02:58:00 17° 267° (W) 03:01:03 437.505
STARS 11 Feb 03:01:23 03:05:25 36° 72° (ENE) 03:09:26 437.465
